Time,TemperatureF,DewpointF,PressureIn,WindDirection,WindDirectionDegrees,WindSpeedMPH,WindSpeedGustMPH,Humidity,HourlyPrecipIn,Conditions,Clouds,dailyrainin,SolarRadiationWatts/m^2,SoftwareType,DateUTC
2013-09-29 00:01:00,66.3,65.4,25.98,SE,138,0.0,0.0,97,0.00,,,0.00,0,Wunderground v.1.15,2013-09-29 06:01:00,
2013-09-29 00:10:00,66.3,65.4,25.98,SE,138,0.0,0.0,97,0.00,,,0.00,0,Wunderground v.1.15,2013-09-29 06:10:00,
2013-09-29 00:15:00,66.5,65.9,25.97,SE,138,0.0,0.0,98,0.00,,,0.00,0,Wunderground v.1.15,2013-09-29 06:15:00,
2013-09-29 00:21:00,66.5,65.6,25.97,SE,138,0.0,0.0,97,0.00,,,0.00,0,Wunderground v.1.15,2013-09-29 06:21:00,
2013-09-29 00:26:00,66.5,65.6,25.97,SE,138,0.0,0.0,97,0.00,,,0.00,0,Wunderground v.1.15,2013-09-29 06:26:00,
2013-09-29 00:31:00,66.5,65.6,25.96,SE,138,0.0,0.0,97,0.00,,,0.00,0,Wunderground v.1.15,2013-09-29 06:31:00,
2013-09-29 00:41:00,66.3,65.4,25.95,SE,138,0.0,0.0,97,0.00,,,0.00,0,Wunderground v.1.15,2013-09-29 06:41:00,
2013-09-29 00:50:00,66.3,65.4,25.94,SE,138,0.0,0.0,97,0.00,,,0.00,0,Wunderground v.1.15,2013-09-29 06:50:00,
2013-09-29 01:00:00,66.2,65.3,25.93,SE,138,0.0,0.0,97,0.00,,,0.00,0,Wunderground v.1.15,2013-09-29 07:00:00,
2013-09-29 01:06:00,66.0,65.1,25.92,SE,138,0.0,0.0,97,0.00,,,0.00,0,Wunderground v.1.15,2013-09-29 07:06:00,
2013-09-29 01:16:00,66.2,65.3,25.92,SE,138,0.0,1.0,97,0.00,,,0.00,0,Wunderground v.1.15,2013-09-29 07:16:00,
2013-09-29 01:31:00,66.2,65.3,25.90,SE,138,1.0,1.0,97,0.00,,,0.00,0,Wunderground v.1.15,2013-09-29 07:31:00,
2013-09-29 01:40:00,66.0,65.1,25.89,SSE,165,3.0,3.0,97,0.00,,,0.00,0,Wunderground v.1.15,2013-09-29 07:40:00,
2013-09-29 01:50:00,65.9,65.0,25.89,SSE,154,4.0,4.0,97,0.00,,,0.00,0,Wunderground v.1.15,2013-09-29 07:50:00,
2013-09-29 01:56:00,65.7,64.8,25.89,SE,146,5.0,5.0,97,0.00,,,0.00,0,Wunderground v.1.15,2013-09-29 07:56:00,
2013-09-29 02:05:00,65.5,64.6,25.90,ESE,121,5.0,5.0,97,0.00,,,0.00,0,Wunderground v.1.15,2013-09-29 08:05:00,
2013-09-29 02:15:00,65.4,64.2,25.92,SE,140,3.0,6.0,96,0.00,,,0.00,0,Wunderground v.1.15,2013-09-29 08:15:00,
2013-09-29 02:26:00,65.4,63.9,25.92,ENE,57,2.0,3.0,95,0.00,,,0.00,0,Wunderground v.1.15,2013-09-29 08:26:00,
2013-09-29 02:31:00,65.4,63.6,25.93,ENE,60,1.0,1.0,94,0.00,,,0.00,0,Wunderground v.1.15,2013-09-29 08:31:00,
2013-09-29 02:40:00,65.4,63.3,25.94,North,5,0.0,0.0,93,0.00,,,0.00,0,Wunderground v.1.15,2013-09-29 08:40:00,
2013-09-29 02:45:00,65.5,63.7,25.94,WSW,246,0.0,2.0,94,0.00,,,0.00,0,Wunderground v.1.15,2013-09-29 08:45:00,
2013-09-29 02:55:00,65.7,64.2,25.94,WSW,246,0.0,1.0,95,0.00,,,0.00,0,Wunderground v.1.15,2013-09-29 08:55:00,
2013-09-29 03:00:00,65.7,64.2,25.94,WSW,246,0.0,0.0,95,0.00,,,0.00,0,Wunderground v.1.15,2013-09-29 09:00:00,
2013-09-29 03:06:00,65.7,64.5,25.94,West,263,0.0,3.0,96,0.00,,,0.00,0,Wunderground v.1.15,2013-09-29 09:06:00,
2013-09-29 03:16:00,65.9,64.7,25.94,West,275,0.0,1.0,96,0.00,,,0.00,0,Wunderground v.1.15,2013-09-29 09:16:00,
2013-09-29 03:25:00,66.0,65.1,25.94,WSW,250,1.0,1.0,97,0.00,,,0.00,0,Wunderground v.1.15,2013-09-29 09:25:00,
2013-09-29 03:30:00,66.0,65.1,25.94,WSW,251,1.0,1.0,97,0.00,,,0.00,0,Wunderground v.1.15,2013-09-29 09:30:00,
2013-09-29 03:41:00,66.0,65.1,25.93,WSW,251,0.0,0.0,97,0.00,,,0.00,0,Wunderground v.1.15,2013-09-29 09:41:00,
2013-09-29 03:46:00,66.0,65.1,25.94,WSW,251,0.0,0.0,97,0.00,,,0.00,0,Wunderground v.1.15,2013-09-29 09:46:00,
2013-09-29 03:55:00,65.7,64.8,25.94,WSW,251,0.0,0.0,97,0.00,,,0.00,0,Wunderground v.1.15,2013-09-29 09:55:00,
2013-09-29 04:00:00,65.7,64.8,25.94,WSW,251,0.0,0.0,97,0.00,,,0.00,0,Wunderground v.1.15,2013-09-29 10:00:00,
2013-09-29 04:10:00,65.7,64.8,25.94,WSW,251,0.0,0.0,97,0.00,,,0.00,0,Wunderground v.1.15,2013-09-29 10:10:00,
2013-09-29 04:16:00,65.7,64.8,25.94,WSW,251,0.0,0.0,97,0.00,,,0.00,0,Wunderground v.1.15,2013-09-29 10:16:00,
2013-09-29 04:26:00,65.7,64.8,25.94,WSW,250,0.0,1.0,97,0.00,,,0.00,0,Wunderground v.1.15,2013-09-29 10:26:00,
2013-09-29 04:35:00,65.7,64.8,25.94,WSW,251,0.0,0.0,97,0.00,,,0.00,0,Wunderground v.1.15,2013-09-29 10:35:00,
2013-09-29 04:41:00,65.7,64.8,25.94,WSW,252,1.0,1.0,97,0.00,,,0.00,0,Wunderground v.1.15,2013-09-29 10:41:00,
2013-09-29 04:46:00,65.7,64.8,25.94,West,269,1.0,1.0,97,0.00,,,0.00,0,Wunderground v.1.15,2013-09-29 10:46:00,
2013-09-29 04:55:00,65.4,64.5,25.95,WSW,248,1.0,2.0,97,0.00,,,0.00,0,Wunderground v.1.15,2013-09-29 10:55:00,
2013-09-29 05:05:00,65.2,64.3,25.95,NW,309,1.0,2.0,97,0.00,,,0.00,0,Wunderground v.1.15,2013-09-29 11:05:00,
2013-09-29 05:10:00,65.2,64.3,25.95,NW,309,0.0,0.0,97,0.00,,,0.00,0,Wunderground v.1.15,2013-09-29 11:10:00,
2013-09-29 05:16:00,65.1,64.2,25.95,NW,309,0.0,0.0,97,0.00,,,0.00,0,Wunderground v.1.15,2013-09-29 11:16:00,
2013-09-29 05:25:00,65.1,64.2,25.95,NW,309,0.0,0.0,97,0.00,,,0.00,0,Wunderground v.1.15,2013-09-29 11:25:00,
2013-09-29 05:30:00,65.1,64.2,25.95,NW,309,0.0,0.0,97,0.00,,,0.00,0,Wunderground v.1.15,2013-09-29 11:30:00,
2013-09-29 05:41:00,65.1,64.2,25.95,NW,309,0.0,0.0,97,0.00,,,0.00,7,Wunderground v.1.15,2013-09-29 11:41:00,
2013-09-29 05:46:00,64.9,64.0,25.95,NW,309,0.0,0.0,97,0.00,,,0.00,9,Wunderground v.1.15,2013-09-29 11:46:00,
2013-09-29 05:55:00,64.9,64.0,25.96,NW,309,0.0,1.0,97,0.00,,,0.00,26,Wunderground v.1.15,2013-09-29 11:55:00,
2013-09-29 06:00:00,64.9,64.0,25.96,NW,309,0.0,0.0,97,0.00,,,0.00,33,Wunderground v.1.15,2013-09-29 12:00:00,
2013-09-29 06:10:00,65.2,64.3,25.95,North,5,0.0,0.0,97,0.00,,,0.00,123,Wunderground v.1.15,2013-09-29 12:10:00,
2013-09-29 06:15:00,65.7,64.8,25.96,North,5,0.0,0.0,97,0.00,,,0.00,95,Wunderground v.1.15,2013-09-29 12:15:00,
2013-09-29 06:26:00,66.2,65.0,25.96,North,5,0.0,0.0,96,0.00,,,0.00,141,Wunderground v.1.15,2013-09-29 12:26:00,
2013-09-29 06:31:00,66.2,63.8,25.96,North,5,0.0,0.0,92,0.00,,,0.00,188,Wunderground v.1.15,2013-09-29 12:31:00,
2013-09-29 06:36:00,66.3,63.6,25.97,North,5,0.0,0.0,91,0.00,,,0.00,114,Wunderground v.1.15,2013-09-29 12:36:00,
2013-09-29 06:46:00,67.0,64.3,25.97,North,5,0.0,0.0,91,0.00,,,0.00,269,Wunderground v.1.15,2013-09-29 12:46:00,
2013-09-29 06:55:00,68.2,63.9,25.97,North,5,0.0,0.0,86,0.00,,,0.00,320,Wunderground v.1.15,2013-09-29 12:55:00,
2013-09-29 07:00:00,68.3,63.9,25.97,WNW,289,0.0,0.0,86,0.00,,,0.00,167,Wunderground v.1.15,2013-09-29 13:00:00,
2013-09-29 07:05:00,68.7,64.3,25.97,WNW,289,0.0,0.0,86,0.00,,,0.00,142,Wunderground v.1.15,2013-09-29 13:05:00,
2013-09-29 07:15:00,68.8,63.8,25.98,WNW,289,0.0,0.0,84,0.00,,,0.00,127,Wunderground v.1.15,2013-09-29 13:15:00,
2013-09-29 07:21:00,68.8,63.4,25.98,WNW,289,0.0,1.0,83,0.00,,,0.00,111,Wunderground v.1.15,2013-09-29 13:21:00,
2013-09-29 07:26:00,68.8,63.4,25.98,WNW,289,0.0,1.0,83,0.00,,,0.00,144,Wunderground v.1.15,2013-09-29 13:26:00,
2013-09-29 07:31:00,68.7,63.0,25.98,NNE,25,0.0,1.0,82,0.00,,,0.00,462,Wunderground v.1.15,2013-09-29 13:31:00,
2013-09-29 07:40:00,69.3,63.2,25.97,WNW,294,1.0,1.0,81,0.00,,,0.00,322,Wunderground v.1.15,2013-09-29 13:40:00,
2013-09-29 07:45:00,70.0,63.5,25.98,WNW,294,0.0,1.0,80,0.00,,,0.00,315,Wunderground v.1.15,2013-09-29 13:45:00,
2013-09-29 07:55:00,70.7,62.8,25.97,West,267,1.0,3.0,76,0.00,,,0.00,381,Wunderground v.1.15,2013-09-29 13:55:00,
2013-09-29 08:01:00,71.0,63.1,25.97,NW,309,1.0,1.0,76,0.00,,,0.00,350,Wunderground v.1.15,2013-09-29 14:01:00,
2013-09-29 08:10:00,72.2,63.1,25.98,WNW,292,1.0,1.0,73,0.00,,,0.00,200,Wunderground v.1.15,2013-09-29 14:10:00,
2013-09-29 08:15:00,72.7,62.8,25.98,WNW,292,1.0,1.0,71,0.00,,,0.00,568,Wunderground v.1.15,2013-09-29 14:15:00,
2013-09-29 08:26:00,73.9,63.1,25.98,WSW,257,1.0,1.0,69,0.00,,,0.00,406,Wunderground v.1.15,2013-09-29 14:26:00,
2013-09-29 08:31:00,74.6,64.2,25.98,SSW,202,1.0,1.0,70,0.00,,,0.00,745,Wunderground v.1.15,2013-09-29 14:31:00,
2013-09-29 08:40:00,75.9,63.3,25.98,WNW,297,1.0,1.0,65,0.00,,,0.00,696,Wunderground v.1.15,2013-09-29 14:40:00,
2013-09-29 08:45:00,76.2,62.7,25.97,West,281,1.0,1.0,63,0.00,,,0.00,673,Wunderground v.1.15,2013-09-29 14:45:00,
2013-09-29 08:55:00,76.6,63.1,25.97,South,174,1.0,1.0,63,0.00,,,0.00,694,Wunderground v.1.15,2013-09-29 14:55:00,
2013-09-29 09:01:00,77.1,63.5,25.97,South,174,0.0,2.0,63,0.00,,,0.00,714,Wunderground v.1.15,2013-09-29 15:01:00,
2013-09-29 09:10:00,78.4,63.4,25.97,SW,225,1.0,2.0,60,0.00,,,0.00,731,Wunderground v.1.15,2013-09-29 15:10:00,
2013-09-29 09:15:00,78.5,62.5,25.97,SSW,213,1.0,1.0,58,0.00,,,0.00,766,Wunderground v.1.15,2013-09-29 15:15:00,
2013-09-29 09:26:00,77.6,62.6,25.97,NE,36,1.0,1.0,60,0.00,,,0.00,791,Wunderground v.1.15,2013-09-29 15:26:00,
2013-09-29 09:31:00,77.8,62.3,25.97,ESE,115,1.0,1.0,59,0.00,,,0.00,782,Wunderground v.1.15,2013-09-29 15:31:00,
2013-09-29 09:40:00,79.1,62.6,25.97,SW,234,1.0,3.0,57,0.00,,,0.01,517,Wunderground v.1.15,2013-09-29 15:40:00,
2013-09-29 09:45:00,78.9,63.8,25.97,SW,234,1.0,1.0,60,0.00,,,0.01,823,Wunderground v.1.15,2013-09-29 15:45:00,
2013-09-29 09:55:00,80.0,62.9,25.97,West,264,0.0,0.0,56,0.00,,,0.01,874,Wunderground v.1.15,2013-09-29 15:55:00,
2013-09-29 10:01:00,80.8,63.6,25.97,South,180,1.0,1.0,56,0.00,,,0.01,912,Wunderground v.1.15,2013-09-29 16:01:00,
2013-09-29 10:10:00,80.8,63.6,25.96,NW,321,1.0,1.0,56,0.00,,,0.01,278,Wunderground v.1.15,2013-09-29 16:10:00,
2013-09-29 10:15:00,80.2,64.1,25.96,West,263,1.0,6.0,58,0.00,,,0.01,1000,Wunderground v.1.15,2013-09-29 16:15:00,
2013-09-29 10:21:00,80.8,63.1,25.96,SSW,194,2.0,2.0,55,0.00,,,0.01,962,Wunderground v.1.15,2013-09-29 16:21:00,
2013-09-29 10:31:00,80.8,62.1,25.96,WNW,294,2.0,2.0,53,0.00,,,0.01,183,Wunderground v.1.15,2013-09-29 16:31:00,
2013-09-29 10:40:00,79.3,62.2,25.96,WNW,298,2.0,2.0,56,0.00,,,0.01,176,Wunderground v.1.15,2013-09-29 16:40:00,
2013-09-29 10:45:00,78.9,62.9,25.96,NW,313,1.0,2.0,58,0.00,,,0.01,329,Wunderground v.1.15,2013-09-29 16:45:00,
2013-09-29 10:56:00,77.8,62.3,25.96,NW,314,2.0,3.0,59,0.00,,,0.01,123,Wunderground v.1.15,2013-09-29 16:56:00,
2013-09-29 11:01:00,76.0,62.5,25.95,North,360,3.0,3.0,63,0.00,,,0.01,123,Wunderground v.1.15,2013-09-29 17:01:00,
2013-09-29 11:10:00,75.0,62.4,25.95,NNE,21,3.0,3.0,65,0.00,,,0.01,301,Wunderground v.1.15,2013-09-29 17:10:00,
2013-09-29 11:16:00,75.3,62.7,25.95,West,277,3.0,3.0,65,0.00,,,0.01,1165,Wunderground v.1.15,2013-09-29 17:16:00,
2013-09-29 11:25:00,76.7,63.2,25.94,SE,144,4.0,4.0,63,0.00,,,0.01,253,Wunderground v.1.15,2013-09-29 17:25:00,
2013-09-29 11:35:00,76.6,63.5,25.93,ESE,117,2.0,3.0,64,0.00,,,0.01,155,Wunderground v.1.15,2013-09-29 17:35:00,
2013-09-29 11:46:00,76.0,63.8,25.93,WNW,298,3.0,3.0,66,0.00,,,0.01,118,Wunderground v.1.15,2013-09-29 17:46:00,
2013-09-29 11:55:00,75.7,63.5,25.92,WNW,286,2.0,4.0,66,0.00,,,0.01,163,Wunderground v.1.15,2013-09-29 17:55:00,
2013-09-29 12:01:00,75.5,63.8,25.92,NW,307,2.0,2.0,67,0.00,,,0.01,195,Wunderground v.1.15,2013-09-29 18:01:00,
2013-09-29 12:11:00,75.2,63.5,25.92,West,275,3.0,4.0,67,0.00,,,0.01,218,Wunderground v.1.15,2013-09-29 18:11:00,
2013-09-29 12:16:00,75.2,63.5,25.92,NE,50,4.0,6.0,67,0.00,,,0.01,366,Wunderground v.1.15,2013-09-29 18:16:00,
2013-09-29 12:25:00,75.5,63.8,25.92,West,274,5.0,5.0,67,0.00,,,0.01,1136,Wunderground v.1.15,2013-09-29 18:25:00,
2013-09-29 12:30:00,75.0,63.7,25.91,NNE,25,5.0,9.0,68,0.00,,,0.01,309,Wunderground v.1.15,2013-09-29 18:30:00,
2013-09-29 12:40:00,73.6,63.2,25.91,NNE,21,4.0,5.0,70,0.00,,,0.01,227,Wunderground v.1.15,2013-09-29 18:40:00,
2013-09-29 12:45:00,73.6,63.2,25.91,NW,313,4.0,5.0,70,0.00,,,0.01,309,Wunderground v.1.15,2013-09-29 18:45:00,
2013-09-29 12:51:00,73.4,63.4,25.90,East,81,4.0,5.0,71,0.00,,,0.01,343,Wunderground v.1.15,2013-09-29 18:51:00,
2013-09-29 13:00:00,73.4,63.4,25.90,West,279,4.0,4.0,71,0.00,,,0.01,186,Wunderground v.1.15,2013-09-29 19:00:00,
2013-09-29 13:06:00,72.7,63.5,25.90,ENE,65,4.0,6.0,73,0.00,,,0.01,118,Wunderground v.1.15,2013-09-29 19:06:00,
2013-09-29 13:16:00,71.9,63.2,25.90,North,360,3.0,7.0,74,0.00,,,0.01,163,Wunderground v.1.15,2013-09-29 19:16:00,
2013-09-29 13:25:00,71.9,62.8,25.90,NE,42,3.0,4.0,73,0.00,,,0.01,148,Wunderground v.1.15,2013-09-29 19:25:00,
2013-09-29 13:30:00,72.0,62.5,25.90,NE,34,3.0,3.0,72,0.00,,,0.01,153,Wunderground v.1.15,2013-09-29 19:30:00,
2013-09-29 13:35:00,72.2,62.7,25.89,SW,235,3.0,4.0,72,0.00,,,0.01,123,Wunderground v.1.15,2013-09-29 19:35:00,
2013-09-29 13:46:00,72.0,62.9,25.89,NNE,13,4.0,7.0,73,0.00,,,0.01,77,Wunderground v.1.15,2013-09-29 19:46:00,
2013-09-29 13:51:00,71.4,63.1,25.89,West,268,4.0,4.0,75,0.00,,,0.01,84,Wunderground v.1.15,2013-09-29 19:51:00,
2013-09-29 13:56:00,70.7,63.1,25.89,West,261,4.0,4.0,77,0.00,,,0.01,86,Wunderground v.1.15,2013-09-29 19:56:00,
2013-09-29 14:01:00,70.7,63.1,25.89,West,271,3.0,3.0,77,0.00,,,0.01,83,Wunderground v.1.15,2013-09-29 20:01:00,
2013-09-29 14:11:00,70.5,63.7,25.89,NE,47,3.0,3.0,79,0.00,,,0.01,77,Wunderground v.1.15,2013-09-29 20:11:00,
2013-09-29 14:16:00,70.5,63.7,25.89,WSW,247,2.0,4.0,79,0.00,,,0.01,97,Wunderground v.1.15,2013-09-29 20:16:00,
2013-09-29 14:26:00,70.3,64.2,25.89,NW,325,2.0,4.0,81,0.00,,,0.01,114,Wunderground v.1.15,2013-09-29 20:26:00,
2013-09-29 14:31:00,70.3,64.2,25.89,NNW,329,0.0,0.0,81,0.00,,,0.01,127,Wunderground v.1.15,2013-09-29 20:31:00,
2013-09-29 14:40:00,70.5,63.3,25.89,West,273,2.0,2.0,78,0.00,,,0.01,95,Wunderground v.1.15,2013-09-29 20:40:00,
2013-09-29 14:45:00,70.7,63.5,25.89,SW,232,2.0,2.0,78,0.00,,,0.01,72,Wunderground v.1.15,2013-09-29 20:45:00,
2013-09-29 14:55:00,70.8,64.0,25.89,West,267,1.0,1.0,79,0.00,,,0.01,76,Wunderground v.1.15,2013-09-29 20:55:00,
2013-09-29 15:01:00,70.8,64.0,25.89,South,172,1.0,1.0,79,0.00,,,0.01,84,Wunderground v.1.15,2013-09-29 21:01:00,
2013-09-29 15:11:00,70.7,64.2,25.89,South,172,0.0,1.0,80,0.00,,,0.01,67,Wunderground v.1.15,2013-09-29 21:11:00,
2013-09-29 15:16:00,70.5,64.0,25.89,South,172,0.0,0.0,80,0.00,,,0.01,76,Wunderground v.1.15,2013-09-29 21:16:00,
2013-09-29 15:26:00,70.2,63.4,25.89,WSW,239,0.0,0.0,79,0.00,,,0.01,79,Wunderground v.1.15,2013-09-29 21:26:00,
2013-09-29 15:31:00,70.2,63.7,25.89,WSW,239,0.0,0.0,80,0.00,,,0.01,67,Wunderground v.1.15,2013-09-29 21:31:00,
2013-09-29 15:41:00,70.3,64.2,25.90,WSW,239,0.0,0.0,81,0.00,,,0.01,54,Wunderground v.1.15,2013-09-29 21:41:00,
2013-09-29 15:46:00,70.5,64.0,25.90,WSW,239,0.0,0.0,80,0.00,,,0.01,58,Wunderground v.1.15,2013-09-29 21:46:00,
2013-09-29 15:55:00,70.5,63.7,25.90,WSW,239,0.0,0.0,79,0.00,,,0.01,77,Wunderground v.1.15,2013-09-29 21:55:00,
2013-09-29 16:01:00,70.7,64.2,25.90,WSW,239,0.0,0.0,80,0.00,,,0.01,97,Wunderground v.1.15,2013-09-29 22:01:00,
2013-09-29 16:10:00,70.7,63.9,25.90,WSW,239,0.0,0.0,79,0.00,,,0.01,90,Wunderground v.1.15,2013-09-29 22:10:00,
2013-09-29 16:15:00,70.8,64.0,25.89,WSW,239,0.0,0.0,79,0.00,,,0.01,79,Wunderground v.1.15,2013-09-29 22:15:00,
2013-09-29 16:25:00,70.8,63.2,25.89,WSW,239,0.0,0.0,77,0.00,,,0.01,79,Wunderground v.1.15,2013-09-29 22:25:00,
2013-09-29 16:31:00,70.8,62.9,25.90,WSW,239,0.0,0.0,76,0.00,,,0.01,76,Wunderground v.1.15,2013-09-29 22:31:00,
2013-09-29 16:41:00,70.8,62.9,25.90,WSW,239,0.0,0.0,76,0.00,,,0.01,65,Wunderground v.1.15,2013-09-29 22:41:00,
2013-09-29 16:46:00,70.8,62.9,25.90,WSW,239,0.0,0.0,76,0.00,,,0.01,53,Wunderground v.1.15,2013-09-29 22:46:00,
2013-09-29 16:55:00,70.5,62.6,25.91,WSW,239,0.0,0.0,76,0.00,,,0.01,33,Wunderground v.1.15,2013-09-29 22:55:00,
2013-09-29 17:00:00,70.3,62.7,25.92,WSW,239,0.0,0.0,77,0.00,,,0.01,19,Wunderground v.1.15,2013-09-29 23:00:00,
2013-09-29 17:10:00,70.2,62.3,25.92,WNW,284,1.0,4.0,76,0.00,,,0.01,7,Wunderground v.1.15,2013-09-29 23:10:00,
2013-09-29 17:15:00,70.0,62.5,25.93,WNW,289,1.0,4.0,77,0.00,,,0.01,0,Wunderground v.1.15,2013-09-29 23:15:00,
2013-09-29 17:21:00,69.8,62.6,25.93,WNW,289,1.0,1.0,78,0.00,,,0.01,0,Wunderground v.1.15,2013-09-29 23:21:00,
2013-09-29 17:26:00,69.8,63.0,25.93,WNW,289,0.0,1.0,79,0.00,,,0.01,0,Wunderground v.1.15,2013-09-29 23:26:00,
2013-09-29 17:31:00,69.8,63.3,25.93,WSW,246,0.0,0.0,80,0.00,,,0.01,0,Wunderground v.1.15,2013-09-29 23:31:00,
2013-09-29 17:41:00,69.5,63.4,25.93,WSW,240,0.0,0.0,81,0.00,,,0.01,0,Wunderground v.1.15,2013-09-29 23:41:00,
2013-09-29 17:46:00,69.5,63.8,25.93,WSW,240,0.0,3.0,82,0.00,,,0.01,0,Wunderground v.1.15,2013-09-29 23:46:00,
2013-09-29 17:55:00,69.3,64.3,25.93,WSW,241,0.0,1.0,84,0.00,,,0.01,0,Wunderground v.1.15,2013-09-29 23:55:00,
2013-09-29 18:00:00,69.2,64.5,25.94,WSW,241,0.0,0.0,85,0.00,,,0.01,0,Wunderground v.1.15,2013-09-30 00:00:00,
2013-09-29 18:10:00,68.8,64.4,25.93,WSW,241,0.0,0.0,86,0.00,,,0.01,0,Wunderground v.1.15,2013-09-30 00:10:00,
2013-09-29 18:15:00,68.7,64.3,25.94,WSW,241,0.0,0.0,86,0.00,,,0.02,0,Wunderground v.1.15,2013-09-30 00:15:00,
2013-09-29 18:21:00,68.5,63.8,25.94,WSW,241,0.0,0.0,85,0.00,,,0.02,0,Wunderground v.1.15,2013-09-30 00:21:00,
2013-09-29 18:26:00,68.2,63.2,25.94,WSW,241,0.0,0.0,84,0.00,,,0.02,0,Wunderground v.1.15,2013-09-30 00:26:00,
2013-09-29 18:31:00,68.2,63.5,25.94,WSW,241,0.0,0.0,85,0.00,,,0.02,0,Wunderground v.1.15,2013-09-30 00:31:00,
2013-09-29 18:40:00,68.3,64.3,25.94,WSW,241,0.0,0.0,87,0.00,,,0.02,0,Wunderground v.1.15,2013-09-30 00:40:00,
2013-09-29 18:45:00,68.3,63.9,25.95,WSW,241,0.0,0.0,86,0.00,,,0.02,0,Wunderground v.1.15,2013-09-30 00:45:00,
2013-09-29 18:55:00,68.3,64.3,25.95,WSW,241,0.0,0.0,87,0.00,,,0.02,0,Wunderground v.1.15,2013-09-30 00:55:00,
2013-09-29 19:00:00,68.2,64.2,25.95,WSW,241,0.0,0.0,87,0.00,,,0.02,0,Wunderground v.1.15,2013-09-30 01:00:00,
2013-09-29 19:10:00,68.0,64.0,25.95,WSW,241,0.0,0.0,87,0.00,,,0.02,0,Wunderground v.1.15,2013-09-30 01:10:00,
2013-09-29 19:16:00,67.8,63.5,25.96,WSW,241,0.0,0.0,86,0.00,,,0.02,0,Wunderground v.1.15,2013-09-30 01:16:00,
2013-09-29 19:26:00,67.5,63.2,25.97,North,360,0.0,2.0,86,0.00,,,0.02,0,Wunderground v.1.15,2013-09-30 01:26:00,
2013-09-29 19:31:00,67.5,63.2,25.97,SSE,155,1.0,1.0,86,0.00,,,0.02,0,Wunderground v.1.15,2013-09-30 01:31:00,
2013-09-29 19:41:00,66.8,62.5,25.98,NNW,344,3.0,3.0,86,0.08,,,0.03,0,Wunderground v.1.15,2013-09-30 01:41:00,
2013-09-29 19:46:00,66.7,62.7,25.98,East,98,3.0,5.0,87,0.09,,,0.04,0,Wunderground v.1.15,2013-09-30 01:46:00,
2013-09-29 19:55:00,66.2,62.5,25.98,NE,51,3.0,5.0,88,0.10,,,0.05,0,Wunderground v.1.15,2013-09-30 01:55:00,
2013-09-29 20:05:00,65.9,61.9,25.97,SSE,157,4.0,9.0,87,0.07,,,0.06,0,Wunderground v.1.15,2013-09-30 02:05:00,
2013-09-29 20:11:00,65.7,61.7,25.97,East,80,4.0,5.0,87,0.05,,,0.06,0,Wunderground v.1.15,2013-09-30 02:11:00,
2013-09-29 20:16:00,65.7,61.7,25.97,East,88,4.0,5.0,87,0.04,,,0.06,0,Wunderground v.1.15,2013-09-30 02:16:00,
2013-09-29 20:25:00,65.7,62.0,25.97,ENE,65,2.0,3.0,88,0.09,,,0.08,0,Wunderground v.1.15,2013-09-30 02:25:00,
2013-09-29 20:31:00,65.7,62.7,25.97,SE,136,1.0,2.0,90,0.14,,,0.09,0,Wunderground v.1.15,2013-09-30 02:31:00,
2013-09-29 20:40:00,65.9,63.5,25.98,SE,137,0.0,0.0,92,0.09,,,0.09,0,Wunderground v.1.15,2013-09-30 02:40:00,
2013-09-29 20:45:00,65.9,64.1,25.98,SE,137,0.0,0.0,94,0.10,,,0.10,0,Wunderground v.1.15,2013-09-30 02:45:00,
2013-09-29 20:56:00,65.9,64.4,25.98,SE,136,0.0,0.0,95,0.08,,,0.11,0,Wunderground v.1.15,2013-09-30 02:56:00,
2013-09-29 21:01:00,65.9,64.4,25.99,North,5,0.0,0.0,95,0.08,,,0.12,0,Wunderground v.1.15,2013-09-30 03:01:00,
2013-09-29 21:10:00,65.9,64.4,25.99,NW,311,0.0,0.0,95,0.04,,,0.12,0,Wunderground v.1.15,2013-09-30 03:10:00,
2013-09-29 21:15:00,65.7,64.5,25.99,NW,311,0.0,0.0,96,0.00,,,0.12,0,Wunderground v.1.15,2013-09-30 03:15:00,
2013-09-29 21:25:00,65.7,64.5,25.99,NW,311,0.0,0.0,96,0.00,,,0.13,0,Wunderground v.1.15,2013-09-30 03:25:00,
2013-09-29 21:30:00,65.4,63.3,25.99,ESE,111,0.0,1.0,93,0.00,,,0.13,0,Wunderground v.1.15,2013-09-30 03:30:00,
2013-09-29 21:40:00,65.1,61.8,25.99,ESE,104,1.0,1.0,89,0.00,,,0.13,0,Wunderground v.1.15,2013-09-30 03:40:00,
2013-09-29 21:46:00,65.1,60.8,25.99,NE,40,1.0,1.0,86,0.00,,,0.13,0,Wunderground v.1.15,2013-09-30 03:46:00,
2013-09-29 21:56:00,65.2,61.9,25.99,NE,40,0.0,0.0,89,0.00,,,0.13,0,Wunderground v.1.15,2013-09-30 03:56:00,
2013-09-29 22:05:00,65.2,62.8,25.99,NE,40,0.0,0.0,92,0.00,,,0.13,0,Wunderground v.1.15,2013-09-30 04:05:00,
2013-09-29 22:10:00,65.4,63.9,25.99,NE,40,0.0,0.0,95,0.00,,,0.13,0,Wunderground v.1.15,2013-09-30 04:10:00,
2013-09-29 22:16:00,65.4,64.2,25.99,NE,40,0.0,0.0,96,0.00,,,0.13,0,Wunderground v.1.15,2013-09-30 04:16:00,
2013-09-29 22:21:00,65.5,64.3,25.99,NE,40,0.0,0.0,96,0.00,,,0.13,0,Wunderground v.1.15,2013-09-30 04:21:00,
2013-09-29 22:26:00,65.5,64.3,25.99,NE,40,0.0,0.0,96,0.00,,,0.13,0,Wunderground v.1.15,2013-09-30 04:26:00,
2013-09-29 22:31:00,65.5,64.3,25.99,NE,40,0.0,0.0,96,0.00,,,0.13,0,Wunderground v.1.15,2013-09-30 04:31:00,
2013-09-29 22:41:00,65.5,64.3,25.99,NE,40,0.0,0.0,96,0.00,,,0.13,0,Wunderground v.1.15,2013-09-30 04:41:00,
2013-09-29 22:46:00,65.5,64.3,25.98,NE,40,0.0,0.0,96,0.00,,,0.13,0,Wunderground v.1.15,2013-09-30 04:46:00,
2013-09-29 22:55:00,65.4,64.2,25.98,NE,40,0.0,0.0,96,0.00,,,0.13,0,Wunderground v.1.15,2013-09-30 04:55:00,
2013-09-29 23:00:00,65.4,64.2,25.98,NE,40,0.0,0.0,96,0.00,,,0.13,0,Wunderground v.1.15,2013-09-30 05:00:00,
2013-09-29 23:11:00,65.4,63.9,25.98,NE,40,0.0,0.0,95,0.00,,,0.13,0,Wunderground v.1.15,2013-09-30 05:11:00,
2013-09-29 23:16:00,65.2,63.7,25.97,NE,40,0.0,0.0,95,0.00,,,0.13,0,Wunderground v.1.15,2013-09-30 05:16:00,
2013-09-29 23:26:00,65.1,63.6,25.97,NE,40,0.0,0.0,95,0.00,,,0.13,0,Wunderground v.1.15,2013-09-30 05:26:00,
2013-09-29 23:31:00,65.1,63.6,25.97,NE,40,0.0,0.0,95,0.00,,,0.13,0,Wunderground v.1.15,2013-09-30 05:31:00,
2013-09-29 23:40:00,64.9,63.4,25.96,NE,40,0.0,0.0,95,0.00,,,0.13,0,Wunderground v.1.15,2013-09-30 05:40:00,
2013-09-29 23:45:00,64.9,63.4,25.96,NE,40,0.0,0.0,95,0.00,,,0.13,0,Wunderground v.1.15,2013-09-30 05:45:00,
2013-09-29 23:55:00,64.9,63.7,25.95,NE,40,0.0,0.0,96,0.00,,,0.13,0,Wunderground v.1.15,2013-09-30 05:55:00,